Volver al catálogo

CZ-6A DEB

ActivoPO
NORAD 56241·DEBRIS·🇨🇳 China

Lanzado Nov 11, 2022 desde Taiyuan Satellite Launch Center

Loading…

Próximos Pases (próximas 24 horas)

TLE

ActualizadoSource: Space-Track

Época: Sep 13, 2026, 06:02 UTC

1 56241U 22151ABH 26256.25190529  .00004581  00000-0  84256-3 0  9999
2 56241  98.8254 355.5656 0081099  47.7892 313.0155 14.64051972191092

Sigue CZ-6A DEB en tiempo real con AllMySat

Download on the App Store